| time (UTC) | temp F | wind direction | speed knots | gust knots | rain 1hr in | rain 24hr in | rain mn in | humidity % | barometer mb |
| 20260503025211 | 48 | 9 | 1.7 | 1.7 | 0.00 | 0.00 | 0.00 | 99 | 1009.4 |
| 20260503023706 | 48 | 20 | 0.0 | 0.9 | 0.00 | 0.00 | 0.00 | 99 | 1009.6 |
| 20260503022205 | 48 | 41 | 0.0 | 1.7 | 0.00 | 0.00 | 0.00 | 99 | 1009.8 |
| 20260503020702 | 48 | 99 | 0.0 | 1.7 | 0.00 | 0.00 | 0.00 | 98 | 1009.5 |
| 20260503015158 | 48 | 40 | 0.9 | 2.6 | 0.00 | 0.00 | 0.00 | 98 | 1009.8 |
| 20260503013655 | 48 | 63 | 0.0 | 0.9 | 0.00 | 0.00 | 0.00 | 98 | 1010.0 |
| 20260503012152 | 49 | 90 | 0.0 | 2.6 | 0.00 | 0.00 | 0.00 | 98 | 1009.9 |
| 20260503010647 | 49 | 138 | 2.6 | 2.6 | 0.00 | 0.00 | 0.00 | 97 | 1009.9 |
| 20260503005145 | 49 | 77 | 1.7 | 3.5 | 0.00 | 0.00 | 0.00 | 97 | 1009.6 |
| 20260503003642 | 49 | 123 | 0.9 | 2.6 | 0.00 | 0.00 | 0.00 | 97 | 1009.7 |
| 20260503002138 | 49 | 35 | 0.0 | 2.6 | 0.00 | 0.00 | 0.00 | 96 | 1009.8 |
| 20260503000634 | 49 | 77 | 1.7 | 2.6 | 0.00 | 0.00 | 0.00 | 96 | 1009.7 |
| 20260502235132 | 49 | 110 | 1.7 | 2.6 | 0.00 | 0.00 | 0.00 | 95 | 1009.7 |
| 20260502233632 | 50 | 106 | 0.0 | 2.6 | 0.00 | 0.00 | 0.00 | 95 | 1009.8 |
| 20260502232129 | 50 | 45 | 1.7 | 2.6 | 0.00 | 0.00 | 0.00 | 95 | 1009.8 |
| 20260502230627 | 50 | 99 | 0.0 | 1.7 | 0.00 | 0.00 | 0.00 | 94 | 1009.8 |
| 20260502225124 | 50 | 154 | 1.7 | 2.6 | 0.00 | 0.00 | 0.00 | 94 | 1009.9 |
| 20260502223621 | 50 | 264 | 0.9 | 2.6 | 0.00 | 0.00 | 0.00 | 93 | 1009.7 |
| 20260502222118 | 50 | 325 | 0.0 | 4.3 | 0.00 | 0.00 | 0.00 | 93 | 1009.9 |
| 20260502220614 | 50 | 0 | 0.9 | 1.7 | 0.00 | 0.00 | 0.00 | 92 | 1009.7 |
| 20260502215110 | 50 | 68 | 0.0 | 2.6 | 0.00 | 0.00 | 0.00 | 92 | 1009.6 |
| 20260502213607 | 51 | 16 | 0.0 | 2.6 | 0.00 | 0.00 | 0.00 | 91 | 1009.3 |
| 20260502212107 | 50 | 66 | 0.9 | 2.6 | 0.00 | 0.00 | 0.00 | 90 | 1009.5 |
| 20260502210602 | 51 | 60 | 0.0 | 1.7 | 0.00 | 0.00 | 0.00 | 91 | 1009.7 |
| 20260502205059 | 50 | 216 | 1.7 | 5.2 | 0.00 | 0.00 | 0.00 | 90 | 1009.9 |
| 20260502203556 | 50 | 203 | 2.6 | 3.5 | 0.00 | 0.00 | 0.00 | 90 | 1009.8 |
| 20260502202053 | 50 | 250 | 2.6 | 5.2 | 0.00 | 0.00 | 0.00 | 90 | 1010.2 |
| 20260502200553 | 51 | 162 | 0.9 | 3.5 | 0.00 | 0.00 | 0.00 | 90 | 1010.2 |
| 20260502195051 | 50 | 184 | 1.7 | 6.1 | 0.00 | 0.00 | 0.00 | 91 | 1010.4 |
| 20260502193547 | 51 | 66 | 1.7 | 7.0 | 0.00 | 0.00 | 0.00 | 89 | 1010.4 |
| 20260502192043 | 52 | 225 | 2.6 | 3.5 | 0.00 | 0.00 | 0.00 | 89 | 1010.8 |
| 20260502190541 | 52 | 206 | 4.3 | 6.1 | 0.00 | 0.00 | 0.00 | 86 | 1010.5 |
| 20260502185036 | 52 | 178 | 2.6 | 5.2 | 0.00 | 0.00 | 0.00 | 85 | 1010.7 |
| 20260502183536 | 53 | 118 | 2.6 | 2.6 | 0.00 | 0.00 | 0.00 | 83 | 1010.8 |
| 20260502182035 | 53 | 147 | 1.7 | 4.3 | 0.00 | 0.00 | 0.00 | 80 | 1010.9 |
| 20260502180534 | 52 | 158 | 1.7 | 4.3 | 0.00 | 0.00 | 0.00 | 79 | 1011.1 |
| 20260502163519 | 51 | 223 | 7.0 | 11.3 | 0.00 | 0.00 | 0.00 | 83 | 1011.6 |
| 20260502162015 | 55 | 90 | 0.0 | 7.0 | 0.00 | 0.00 | 0.00 | 81 | 1011.4 |
| 20260502160512 | 53 | 197 | 1.7 | 5.2 | 0.00 | 0.00 | 0.00 | 82 | 1011.6 |
| 20260502152004 | 53 | 209 | 0.9 | 5.2 | 0.00 | 0.00 | 0.00 | 82 | 1012.1 |
| 20260502150501 | 58 | 192 | 0.9 | 2.6 | 0.00 | 0.00 | 0.00 | 75 | 1011.4 |
| 20260502130433 | 52 | 262 | 3.5 | 7.8 | 0.00 | 0.00 | 0.00 | 83 | 1012.3 |
| 20260502123428 | 51 | 157 | 0.0 | 6.1 | 0.00 | 0.00 | 0.00 | 86 | 1012.5 |
| 20260502121925 | 50 | 74 | 0.0 | 6.1 | 0.00 | 0.00 | 0.00 | 86 | 1012.1 |
| 20260502120421 | 50 | 245 | 3.5 | 8.7 | 0.00 | 0.00 | 0.00 | 86 | 1012.2 |
| 20260502114917 | 50 | 197 | 2.6 | 6.1 | 0.00 | 0.00 | 0.00 | 88 | 1012.2 |
| 20260502113415 | 50 | 237 | 4.3 | 4.3 | 0.00 | 0.00 | 0.00 | 86 | 1011.9 |
| 20260502111914 | 49 | 210 | 3.5 | 5.2 | 0.00 | 0.00 | 0.00 | 85 | 1011.9 |
| 20260502110411 | 49 | 209 | 2.6 | 4.3 | 0.00 | 0.00 | 0.00 | 85 | 1011.8 |
| 20260502104909 | 49 | 180 | 0.0 | 3.5 | 0.00 | 0.00 | 0.00 | 86 | 1011.8 |
| 20260502103407 | 49 | 203 | 0.9 | 7.0 | 0.00 | 0.00 | 0.00 | 86 | 1011.5 |
| 20260502101903 | 48 | 225 | 0.0 | 4.3 | 0.00 | 0.00 | 0.00 | 85 | 1011.5 |
| 20260502100359 | 48 | 319 | 1.7 | 4.3 | 0.00 | 0.00 | 0.00 | 84 | 1011.4 |
| 20260502090349 | 48 | 274 | 2.6 | 7.8 | 0.00 | 0.00 | 0.00 | 79 | 1011.4 |
| 20260502070338 | 49 | 147 | 0.0 | 2.6 | 0.00 | 0.00 | 0.00 | 75 | 1011.1 |
| 20260502064838 | 50 | 222 | 2.6 | 3.5 | 0.00 | 0.00 | 0.00 | 74 | 1011.2 |
| 20260502063336 | 50 | 180 | 0.9 | 6.1 | 0.00 | 0.00 | 0.00 | 73 | 1011.5 |
| 20260502061836 | 50 | 235 | 3.5 | 6.1 | 0.00 | 0.00 | 0.00 | 76 | 1011.5 |
| 20260502060335 | 50 | 209 | 3.5 | 3.5 | 0.00 | 0.00 | 0.00 | 77 | 1011.6 |
| 20260502054831 | 49 | 199 | 0.0 | 5.2 | 0.00 | 0.00 | 0.00 | 77 | 1011.5 |
| 20260502053328 | 50 | 158 | 2.6 | 3.5 | 0.00 | 0.00 | 0.00 | 75 | 1011.7 |
| 20260502051827 | 50 | 159 | 1.7 | 4.3 | 0.00 | 0.00 | 0.00 | 73 | 1011.8 |
| 20260502050323 | 50 | 198 | 1.7 | 4.3 | 0.00 | 0.00 | 0.00 | 72 | 1011.6 |
| 20260502044820 | 50 | 213 | 1.7 | 2.6 | 0.00 | 0.00 | 0.00 | 73 | 1011.7 |
| 20260502043317 | 50 | 180 | 0.0 | 4.3 | 0.00 | 0.00 | 0.00 | 74 | 1011.9 |
| 20260502041817 | 50 | 180 | 0.9 | 3.5 | 0.00 | 0.00 | 0.00 | 74 | 1011.7 |
| 20260502040314 | 50 | 238 | 2.6 | 4.3 | 0.00 | 0.00 | 0.00 | 74 | 1011.6 |
| 20260502034810 | 50 | 199 | 1.7 | 1.7 | 0.00 | 0.00 | 0.00 | 74 | 1011.8 |
| 20260502033309 | 50 | 225 | 1.7 | 3.5 | 0.00 | 0.00 | 0.00 | 73 | 1011.8 |
| 20260502031806 | 51 | 195 | 2.6 | 3.5 | 0.00 | 0.00 | 0.00 | 72 | 1011.7 |
| 20260502030306 | 51 | 259 | 2.6 | 4.3 | 0.00 | 0.00 | 0.00 | 71 | 1011.5 |